EW8204 Weather Reports


time (UTC)temp
C
wind
direction
speed
KPH
gust
KPH
rain 1hr
cm
rain 24hr
cm
rain mn
cm
humidity
%
barometer
mb
20260506124519 3 318 0.0 0.0 0.00 0.18 0.00 82 1019.1
20260506123019 3 318 0.0 0.0 0.00 0.18 0.00 82 1019.0
20260506121520 3 318 0.0 0.0 0.00 0.18 0.00 82 1018.9
20260506120023 3 318 0.0 0.0 0.00 0.18 0.00 82 1019.0
20260506114513 4 318 0.0 0.0 0.00 0.20 0.00 81 1018.9
20260506113011 4 318 0.0 0.0 0.00 0.20 0.00 81 1018.7
20260506111508 5 318 0.0 0.0 0.00 0.20 0.00 81 1018.6
20260506110007 5 318 0.0 0.0 0.00 0.20 0.00 81 1018.5
20260506104503 5 318 0.0 0.0 0.00 0.20 0.00 81 1018.5
20260506103001 5 318 0.0 0.0 0.00 0.20 0.00 81 1018.4
20260506101600 6 318 0.0 0.0 0.00 0.20 0.00 81 1018.2
20260506100104 6 318 0.0 0.0 0.00 0.20 0.00 80 1018.1
20260506094611 6 318 0.0 0.0 0.00 0.20 0.00 81 1017.9
20260506093052 7 318 0.0 0.0 0.00 0.20 0.00 81 1017.7
20260506091552 7 318 0.0 0.0 0.00 0.20 0.00 81 1017.7
20260506090051 7 318 0.0 0.0 0.00 0.20 0.00 81 1017.7
20260506084555 7 318 0.0 0.0 0.00 0.25 0.00 81 1017.8
20260506083057 7 318 0.0 0.0 0.00 0.25 0.00 81 1017.8
20260506081549 7 318 0.0 0.0 0.00 0.25 0.00 81 1018.0
20260506080105 7 318 0.0 0.0 0.00 0.25 0.00 81 1018.2
20260506073052 7 318 0.0 0.0 0.00 0.30 0.00 81 1018.2
20260506071543 7 318 0.0 0.0 0.00 0.30 0.00 81 1018.4
20260506061534 6 318 0.0 0.0 0.00 0.46 0.30 81 1017.3
20260506044536 7 318 0.0 0.0 0.00 0.53 0.30 80 1016.5
20260506043025 7 319 0.0 0.0 0.00 0.53 0.30 80 1016.4
20260506041532 7 318 0.0 0.0 0.00 0.53 0.30 80 1016.2
20260506040026 8 318 0.0 1.6 0.00 0.53 0.30 80 1016.1
20260506034525 8 318 0.0 0.0 0.00 0.53 0.30 80 1015.9
20260506033019 8 318 0.0 0.0 0.00 0.53 0.30 80 1015.6
20260506031518 8 318 0.0 0.0 0.00 0.53 0.30 80 1015.4
20260506030017 8 318 0.0 0.0 0.00 0.53 0.30 81 1015.5
20260506024519 8 318 0.0 0.0 0.00 0.53 0.30 81 1015.2
20260506023019 8 318 0.0 0.0 0.00 0.53 0.30 81 1015.3
20260506021516 8 318 0.0 0.0 0.00 0.53 0.30 82 1015.1
20260506020013 8 318 0.0 0.0 0.00 0.53 0.30 82 1015.1
20260506014515 9 318 0.0 0.0 0.00 0.53 0.30 82 1015.0
20260506013015 8 318 0.0 0.0 0.00 0.53 0.30 82 1015.0
20260506011531 8 318 0.0 0.0 0.00 0.53 0.30 83 1015.0
20260506010010 9 319 0.0 0.0 0.03 0.53 0.30 81 1015.0
20260506004525 8 319 0.0 0.0 0.03 0.53 0.30 82 1015.0
20260506003011 8 318 0.0 1.6 0.03 0.53 0.30 81 1014.8
20260506001508 8 333 0.0 1.6 0.03 0.53 0.30 83 1014.8
20260506000007 8 333 0.0 0.0 0.00 0.51 0.28 83 1014.7
20260505234508 8 333 0.0 1.6 0.00 0.51 0.28 82 1014.5
20260505233003 8 333 0.0 1.6 0.00 0.51 0.28 83 1014.4
20260505231502 8 333 0.0 1.6 0.00 0.51 0.28 83 1014.4
20260505224557 8 333 0.0 1.6 0.00 0.56 0.28 82 1014.3
20260505223057 8 333 0.0 1.6 0.00 0.56 0.28 83 1014.4
20260505221602 8 333 0.0 3.2 0.00 0.56 0.28 83 1014.4
20260505220100 8 58 0.0 0.0 0.00 0.56 0.28 83 1014.4
20260505214552 8 58 0.0 1.6 0.00 0.58 0.28 84 1014.5
20260505213048 8 307 0.0 0.0 0.00 0.58 0.28 84 1014.7
20260505211544 8 307 0.0 4.8 0.00 0.58 0.28 84 1014.7
20260505210048 8 354 0.0 1.6 0.00 0.58 0.28 83 1014.5
20260505204550 8 354 0.0 4.8 0.00 0.58 0.28 83 1014.5
20260505203038 8 333 0.0 3.2 0.00 0.58 0.28 83 1014.5
20260505201538 8 326 0.0 4.8 0.00 0.58 0.28 83 1014.5
20260505200035 7 321 0.0 3.2 0.00 0.58 0.28 82 1014.5
20260505194531 7 319 1.6 6.4 0.00 0.58 0.28 83 1014.6
20260505193035 8 331 1.6 4.8 0.00 0.58 0.28 83 1014.5
20260505191630 8 304 0.0 0.0 0.00 0.58 0.28 83 1014.4
20260505190027 8 6 1.6 6.4 0.00 0.58 0.28 84 1014.2
20260505184526 8 304 0.0 4.8 0.00 0.58 0.28 84 1014.1
20260505183034 8 316 0.0 6.4 0.00 0.58 0.28 84 1014.1
20260505181520 8 330 3.2 8.0 0.00 0.58 0.28 84 1014.0
20260505180021 9 328 0.0 6.4 0.00 0.58 0.28 84 1013.8
20260505174514 9 82 0.0 3.2 0.00 0.58 0.28 84 1013.4
20260505173014 9 288 0.0 3.2 0.00 0.58 0.28 84 1013.5
20260505171511 9 305 1.6 6.4 0.00 0.58 0.28 83 1013.6
20260505170010 10 326 0.0 4.8 0.00 0.58 0.28 82 1013.5
20260505164507 8 97 0.0 3.2 0.00 0.64 0.28 83 1013.5
20260505163007 8 116 0.0 1.6 0.00 0.64 0.28 83 1013.4
20260505161605 7 106 0.0 0.0 0.00 0.64 0.28 80 1013.6
20260505153108 6 94 0.0 1.6 0.00 0.76 0.28 80 1013.2
20260505151551 6 332 1.6 3.2 0.00 0.76 0.28 81 1013.1